| time (UTC) | temp C | wind direction | speed KPH | gust KPH | rain 1hr cm | rain 24hr cm | rain mn cm | humidity % | barometer mb |
| 20260507163059 | 18 | 250 | 8.0 | 14.5 | 0.00 | 0.00 | 0.00 | 57 | 1016.7 |
| 20260507161604 | 17 | 157 | 4.8 | 12.9 | 0.00 | 0.00 | 0.00 | 59 | 1016.6 |
| 20260507160058 | 16 | 182 | 8.0 | 17.7 | 0.00 | 0.00 | 0.00 | 65 | 1016.5 |
| 20260507154558 | 16 | 178 | 4.8 | 14.5 | 0.00 | 0.00 | 0.00 | 64 | 1016.9 |
| 20260507153055 | 15 | 210 | 8.0 | 16.1 | 0.00 | 0.00 | 0.00 | 67 | 1017.0 |
| 20260507151556 | 15 | 247 | 6.4 | 16.1 | 0.00 | 0.00 | 0.00 | 67 | 1016.8 |
| 20260507150057 | 15 | 205 | 9.7 | 25.7 | 0.00 | 0.00 | 0.00 | 67 | 1016.8 |
| 20260507144602 | 15 | 217 | 11.3 | 19.3 | 0.00 | 0.00 | 0.00 | 68 | 1016.6 |
| 20260507143114 | 15 | 205 | 11.3 | 20.9 | 0.00 | 0.00 | 0.00 | 67 | 1016.4 |
| 20260507141556 | 15 | 221 | 14.5 | 29.0 | 0.00 | 0.00 | 0.00 | 66 | 1016.3 |
| 20260507140055 | 15 | 200 | 12.9 | 25.7 | 0.00 | 0.00 | 0.00 | 67 | 1016.1 |
| 20260507134556 | 15 | 198 | 12.9 | 25.7 | 0.00 | 0.00 | 0.00 | 66 | 1015.9 |
| 20260507133103 | 14 | 195 | 8.0 | 19.3 | 0.00 | 0.00 | 0.00 | 69 | 1015.8 |
| 20260507131602 | 14 | 213 | 9.7 | 16.1 | 0.00 | 0.00 | 0.00 | 71 | 1015.7 |
| 20260507130058 | 13 | 201 | 9.7 | 24.1 | 0.00 | 0.00 | 0.00 | 72 | 1015.7 |
| 20260507124604 | 13 | 163 | 6.4 | 16.1 | 0.00 | 0.00 | 0.00 | 74 | 1015.7 |
| 20260507123055 | 13 | 64 | 0.0 | 4.8 | 0.00 | 0.00 | 0.00 | 73 | 1015.5 |
| 20260507121556 | 13 | 146 | 3.2 | 12.9 | 0.00 | 0.00 | 0.00 | 73 | 1015.5 |
| 20260507120053 | 13 | 137 | 3.2 | 9.7 | 0.00 | 0.00 | 0.00 | 73 | 1015.5 |
| 20260507114608 | 13 | 82 | 3.2 | 9.7 | 0.00 | 0.00 | 0.00 | 73 | 1015.5 |
| 20260507113117 | 13 | 167 | 8.0 | 12.9 | 0.00 | 0.00 | 0.00 | 72 | 1015.5 |
| 20260507111557 | 14 | 86 | 1.6 | 11.3 | 0.00 | 0.00 | 0.00 | 70 | 1015.7 |
| 20260507110053 | 14 | 141 | 4.8 | 11.3 | 0.00 | 0.00 | 0.00 | 71 | 1015.7 |
| 20260507104549 | 14 | 146 | 3.2 | 17.7 | 0.00 | 0.00 | 0.00 | 72 | 1015.6 |
| 20260507103056 | 14 | 200 | 11.3 | 17.7 | 0.00 | 0.00 | 0.00 | 73 | 1015.4 |
| 20260507101550 | 13 | 182 | 6.4 | 12.9 | 0.00 | 0.00 | 0.00 | 72 | 1015.6 |
| 20260507100057 | 14 | 265 | 3.2 | 8.0 | 0.00 | 0.00 | 0.00 | 70 | 1015.8 |
| 20260507094552 | 15 | 227 | 4.8 | 12.9 | 0.00 | 0.00 | 0.00 | 69 | 1015.6 |
| 20260507093052 | 15 | 201 | 11.3 | 17.7 | 0.00 | 0.00 | 0.00 | 66 | 1015.6 |
| 20260507091622 | 15 | 207 | 9.7 | 16.1 | 0.00 | 0.00 | 0.00 | 64 | 1015.6 |
| 20260507090058 | 15 | 120 | 4.8 | 11.3 | 0.00 | 0.00 | 0.00 | 63 | 1015.5 |
| 20260507084609 | 16 | 162 | 3.2 | 12.9 | 0.00 | 0.00 | 0.00 | 62 | 1015.5 |
| 20260507083052 | 16 | 221 | 4.8 | 16.1 | 0.00 | 0.00 | 0.00 | 61 | 1015.3 |
| 20260507081600 | 16 | 68 | 1.6 | 6.4 | 0.00 | 0.00 | 0.00 | 60 | 1015.3 |
| 20260507080056 | 16 | 225 | 3.2 | 12.9 | 0.00 | 0.00 | 0.00 | 58 | 1015.0 |
| 20260507074559 | 17 | 246 | 6.4 | 30.6 | 0.00 | 0.00 | 0.00 | 57 | 1014.9 |
| 20260507073057 | 16 | 230 | 11.3 | 27.4 | 0.00 | 0.00 | 0.00 | 58 | 1014.7 |
| 20260507071554 | 17 | 185 | 8.0 | 14.5 | 0.00 | 0.00 | 0.00 | 56 | 1014.7 |
| 20260507070052 | 17 | 225 | 6.4 | 17.7 | 0.00 | 0.00 | 0.00 | 57 | 1014.7 |
| 20260507064554 | 17 | 188 | 1.6 | 14.5 | 0.00 | 0.00 | 0.00 | 56 | 1014.8 |
| 20260507063052 | 17 | 162 | 1.6 | 4.8 | 0.00 | 0.00 | 0.00 | 55 | 1014.7 |
| 20260507061553 | 17 | 34 | 3.2 | 24.1 | 0.00 | 0.00 | 0.00 | 54 | 1014.7 |
| 20260507054554 | 18 | 198 | 14.5 | 25.7 | 0.00 | 0.00 | 0.00 | 52 | 1014.2 |
| 20260507053055 | 18 | 223 | 12.9 | 27.4 | 0.00 | 0.00 | 0.00 | 52 | 1014.3 |
| 20260507051554 | 18 | 158 | 11.3 | 20.9 | 0.00 | 0.00 | 0.00 | 52 | 1014.3 |
| 20260507050053 | 18 | 173 | 8.0 | 16.1 | 0.00 | 0.00 | 0.00 | 53 | 1014.3 |
| 20260507044606 | 19 | 207 | 8.0 | 14.5 | 0.00 | 0.00 | 0.00 | 52 | 1014.3 |
| 20260507043109 | 20 | 191 | 9.7 | 17.7 | 0.00 | 0.00 | 0.00 | 51 | 1014.1 |
| 20260507041556 | 20 | 205 | 8.0 | 16.1 | 0.00 | 0.00 | 0.00 | 52 | 1013.9 |
| 20260507040053 | 20 | 192 | 8.0 | 19.3 | 0.00 | 0.00 | 0.00 | 52 | 1013.7 |
| 20260507034557 | 21 | 198 | 9.7 | 17.7 | 0.00 | 0.00 | 0.00 | 51 | 1013.3 |
| 20260507033053 | 22 | 189 | 12.9 | 22.5 | 0.00 | 0.00 | 0.00 | 47 | 1013.1 |
| 20260507031556 | 22 | 171 | 8.0 | 19.3 | 0.00 | 0.00 | 0.00 | 46 | 1012.8 |
| 20260507030056 | 22 | 163 | 12.9 | 20.9 | 0.00 | 0.00 | 0.00 | 45 | 1012.6 |
| 20260507024556 | 23 | 207 | 6.4 | 30.6 | 0.00 | 0.00 | 0.00 | 46 | 1012.5 |
| 20260507023108 | 23 | 232 | 12.9 | 37.0 | 0.00 | 0.00 | 0.00 | 45 | 1012.3 |
| 20260507021555 | 23 | 259 | 9.7 | 17.7 | 0.00 | 0.00 | 0.00 | 45 | 1012.2 |
| 20260507020059 | 23 | 284 | 6.4 | 16.1 | 0.00 | 0.00 | 0.00 | 46 | 1011.7 |
| 20260507014559 | 23 | 201 | 12.9 | 27.4 | 0.00 | 0.00 | 0.00 | 44 | 1011.5 |
| 20260507013050 | 24 | 219 | 14.5 | 29.0 | 0.00 | 0.00 | 0.00 | 45 | 1011.5 |
| 20260507011551 | 25 | 191 | 14.5 | 27.4 | 0.00 | 0.00 | 0.00 | 45 | 1011.4 |
| 20260507010051 | 25 | 221 | 11.3 | 25.7 | 0.00 | 0.00 | 0.00 | 46 | 1011.6 |
| 20260507004552 | 25 | 182 | 8.0 | 20.9 | 0.00 | 0.00 | 0.00 | 45 | 1011.5 |
| 20260507003103 | 25 | 205 | 9.7 | 19.3 | 0.00 | 0.00 | 0.00 | 46 | 1011.5 |
| 20260507001613 | 25 | 205 | 12.9 | 29.0 | 0.00 | 0.00 | 0.00 | 45 | 1011.4 |
| 20260507000052 | 26 | 187 | 12.9 | 22.5 | 0.00 | 0.00 | 0.00 | 46 | 1011.5 |
| 20260506234554 | 26 | 203 | 8.0 | 20.9 | 0.00 | 0.00 | 0.00 | 47 | 1011.4 |
| 20260506233051 | 27 | 192 | 8.0 | 19.3 | 0.00 | 0.00 | 0.00 | 44 | 1011.5 |
| 20260506231604 | 26 | 201 | 12.9 | 20.9 | 0.00 | 0.00 | 0.00 | 45 | 1011.7 |
| 20260506230113 | 27 | 217 | 14.5 | 24.1 | 0.00 | 0.00 | 0.00 | 44 | 1011.8 |
| 20260506224556 | 27 | 207 | 11.3 | 25.7 | 0.00 | 0.00 | 0.00 | 46 | 1011.9 |
| 20260506223052 | 27 | 202 | 12.9 | 22.5 | 0.00 | 0.00 | 0.00 | 41 | 1012.1 |
| 20260506221612 | 27 | 186 | 9.7 | 24.1 | 0.00 | 0.00 | 0.00 | 43 | 1012.1 |
| 20260506220056 | 27 | 248 | 11.3 | 22.5 | 0.00 | 0.00 | 0.00 | 38 | 1012.3 |
| 20260506214554 | 27 | 239 | 11.3 | 20.9 | 0.00 | 0.00 | 0.00 | 35 | 1012.4 |
| 20260506213052 | 27 | 226 | 14.5 | 29.0 | 0.00 | 0.00 | 0.00 | 34 | 1012.6 |
| 20260506211556 | 26 | 237 | 16.1 | 25.7 | 0.00 | 0.00 | 0.00 | 42 | 1012.9 |
| 20260506210059 | 27 | 223 | 14.5 | 38.6 | 0.00 | 0.00 | 0.00 | 36 | 1013.0 |
| 20260506204557 | 27 | 242 | 12.9 | 33.8 | 0.00 | 0.00 | 0.00 | 33 | 1012.9 |
| 20260506203108 | 27 | 233 | 17.7 | 32.2 | 0.00 | 0.00 | 0.00 | 38 | 1012.9 |
| 20260506201558 | 26 | 225 | 16.1 | 30.6 | 0.00 | 0.00 | 0.00 | 42 | 1013.0 |
| 20260506200059 | 26 | 215 | 17.7 | 35.4 | 0.00 | 0.00 | 0.00 | 47 | 1013.0 |
| 20260506194600 | 26 | 195 | 25.7 | 35.4 | 0.00 | 0.00 | 0.00 | 45 | 1013.0 |
| 20260506193104 | 26 | 207 | 20.9 | 33.8 | 0.00 | 0.00 | 0.00 | 41 | 1013.2 |
| 20260506191554 | 26 | 196 | 19.3 | 33.8 | 0.00 | 0.00 | 0.00 | 45 | 1013.2 |
| 20260506190053 | 25 | 175 | 22.5 | 37.0 | 0.00 | 0.00 | 0.00 | 45 | 1013.5 |
| 20260506184554 | 25 | 200 | 24.1 | 37.0 | 0.00 | 0.00 | 0.00 | 44 | 1013.6 |
| 20260506183102 | 24 | 205 | 24.1 | 33.8 | 0.00 | 0.00 | 0.00 | 45 | 1013.8 |
| 20260506181555 | 23 | 191 | 20.9 | 35.4 | 0.00 | 0.00 | 0.00 | 47 | 1014.1 |
| 20260506180057 | 23 | 175 | 17.7 | 30.6 | 0.00 | 0.00 | 0.00 | 48 | 1014.4 |
| 20260506174556 | 23 | 189 | 16.1 | 29.0 | 0.00 | 0.00 | 0.00 | 51 | 1014.7 |
| 20260506173058 | 22 | 223 | 19.3 | 30.6 | 0.00 | 0.00 | 0.00 | 53 | 1014.7 |
| 20260506171553 | 22 | 230 | 11.3 | 24.1 | 0.00 | 0.00 | 0.00 | 57 | 1014.7 |
| 20260506170108 | 21 | 229 | 11.3 | 20.9 | 0.00 | 0.00 | 0.00 | 56 | 1014.9 |
| 20260506164615 | 21 | 227 | 11.3 | 24.1 | 0.00 | 0.00 | 0.00 | 56 | 1014.8 |